Time,TemperatureF,DewpointF,PressureIn,WindDirection,WindDirectionDegrees,WindSpeedMPH,WindSpeedGustMPH,Humidity,HourlyPrecipIn,Conditions,Clouds,dailyrainin,SoftwareType,DateUTC
2013-01-11 00:56:00,75.2,68.2,30.23,ESE,111,4.0,13.0,79,0.00,,SCT045,0.00,VWS V14.00,2013-01-11 05:56:00,
2013-01-11 01:56:00,75.3,68.0,30.22,East,92,2.0,13.0,78,0.00,,SCT045,0.00,VWS V14.00,2013-01-11 06:56:00,
2013-01-11 02:56:00,74.9,68.7,30.19,SE,126,4.0,14.0,81,0.00,,BKN041,0.00,VWS V14.00,2013-01-11 07:56:00,
2013-01-11 03:57:00,74.4,69.3,30.16,ESE,113,4.0,15.0,84,0.00,,BKN048,0.00,VWS V14.00,2013-01-11 08:57:00,
2013-01-11 04:57:00,74.9,69.0,30.16,SSE,161,1.0,12.0,82,0.00,,SCT049,0.00,VWS V14.00,2013-01-11 09:57:00,
2013-01-11 05:57:00,74.6,67.7,30.16,SE,145,0.0,13.0,79,0.00,,BKN049,0.00,VWS V14.00,2013-01-11 10:57:00,
2013-01-11 06:56:00,74.1,67.9,30.17,ESE,123,0.0,14.0,81,0.00,,BKN050,0.00,VWS V14.00,2013-01-11 11:56:00,
2013-01-11 07:57:00,74.8,68.2,30.18,SE,125,6.0,10.0,80,0.00,,BKN250,0.00,VWS V14.00,2013-01-11 12:57:00,
2013-01-11 08:56:00,74.7,69.6,30.19,SSE,154,0.0,10.0,84,0.00,,BKN250,0.00,VWS V14.00,2013-01-11 13:56:00,
2013-01-11 09:57:00,76.9,69.2,30.21,SE,144,0.0,11.0,77,0.00,,BKN250,0.00,VWS V14.00,2013-01-11 14:57:00,
2013-01-11 10:56:00,77.3,69.5,30.20,SE,143,4.0,14.0,77,0.00,,BKN055,0.00,VWS V14.00,2013-01-11 15:56:00,
2013-01-11 11:56:00,79.3,69.1,30.19,ESE,103,9.0,16.0,71,0.00,,OVC065,0.00,VWS V14.00,2013-01-11 16:56:00,
2013-01-11 12:56:00,77.1,69.0,30.17,East,93,12.0,17.0,76,0.00,,-RA,0.00,VWS V14.00,2013-01-11 17:56:00,
2013-01-11 13:56:00,77.9,68.9,30.16,ESE,122,3.0,15.0,74,0.00,,BKN065,0.00,VWS V14.00,2013-01-11 18:56:00,
2013-01-11 14:56:00,77.7,68.0,30.14,ESE,116,10.0,14.0,72,0.00,,BKN250,0.00,VWS V14.00,2013-01-11 19:56:00,
2013-01-11 15:56:00,77.4,68.5,30.14,NE,53,10.0,16.0,74,0.00,,BKN250,0.00,VWS V14.00,2013-01-11 20:56:00,
2013-01-11 16:57:00,76.0,67.9,30.13,East,84,3.0,13.0,76,0.00,,BKN250,0.00,VWS V14.00,2013-01-11 21:57:00,
2013-01-11 17:57:00,74.9,67.2,30.14,East,88,5.0,12.0,77,0.00,,BKN250,0.00,VWS V14.00,2013-01-11 22:57:00,
2013-01-11 18:57:00,75.1,67.8,30.13,ESE,112,5.0,13.0,78,0.00,,BKN250,0.00,VWS V14.00,2013-01-11 23:57:00,
2013-01-11 19:56:00,75.3,68.3,30.15,ESE,106,4.0,12.0,79,0.00,,SCT250,0.00,VWS V14.00,2013-01-12 00:56:00,
2013-01-11 20:56:00,75.5,67.8,30.15,ESE,123,10.0,13.0,77,0.00,,SCT250,0.00,VWS V14.00,2013-01-12 01:56:00,
2013-01-11 21:57:00,75.3,66.4,30.15,ENE,76,5.0,15.0,74,0.00,,BKN055,0.00,VWS V14.00,2013-01-12 02:57:00,
2013-01-11 22:56:00,74.9,67.6,30.15,SE,132,5.0,13.0,78,0.00,,BKN050,0.00,VWS V14.00,2013-01-12 03:56:00,
2013-01-11 23:58:00,74.6,67.7,30.13,ESE,106,9.0,18.0,79,0.00,,BKN055,0.00,VWS V14.00,2013-01-12 04:58:00,